Theta_e
332 330 329 328 327 327 326 326 325 325 324 324 324 324 324 324 323 324 324 324 324 323 323 324 326 327 322 309 309 323 345 343 327 320 315 313 310 310 306 307 307 304 306 307 308 308 308
328 329 329 329 330 329 328 328 327 326 326 326 325 325 325 324 324 323 323 324 324 322 322 324 326 327 315 304 318 325 326 325 320 317 314 313 310 311 307 307 306 307 307 308 309 308 308
323 324 325 326 327 328 328 328 328 328 327 327 327 327 326 325 324 324 324 324 323 322 323 325 326 322 313 308 319 328 323 319 320 317 312 315 314 310 310 306 309 307 304 306 307 306 306
319 320 321 322 323 324 324 323 323 323 326 328 329 328 327 326 325 325 324 324 323 324 323 325 326 321 306 316 322 322 320 317 319 319 317 317 316 311 309 310 305 302 302 298 303 303 306
318 318 318 318 319 320 321 321 321 321 321 323 324 325 327 327 326 326 325 324 322 323 325 325 318 313 304 319 314 319 319 314 317 317 318 316 315 310 308 304 299 300 295 296 298 303 303
317 317 318 317 317 317 317 317 317 318 319 322 323 324 324 325 326 325 324 321 322 321 323 323 321 308 309 307 314 316 319 317 313 314 312 311 310 306 305 302 294 294 294 295 295 300 302
318 317 317 317 317 317 317 316 316 316 317 318 321 322 321 322 323 324 317 315 310 308 313 307 307 306 306 312 315 313 316 314 313 310 303 307 302 299 302 304 302 299 297 296 298 300 298
318 318 317 317 316 316 316 316 315 315 315 316 318 319 319 320 320 320 310 310 308 309 303 310 309 309 312 312 307 311 316 308 307 302 304 301 299 303 303 302 299 298 296 296 298 299 300
319 318 318 318 317 316 316 315 315 315 315 315 315 316 318 319 319 313 308 308 312 313 304 305 308 307 308 310 306 308 311 309 305 302 302 299 301 301 301 299 297 298 296 296 294 298 301
318 319 319 318 317 316 316 315 314 314 314 315 315 316 315 316 315 317 306 310 313 315 298 298 300 306 308 309 304 312 313 309 304 301 302 301 304 299 299 298 299 295 299 297 295 295 292
316 316 317 317 317 316 316 315 315 314 315 315 315 315 315 316 314 315 310 314 316 311 284 299 301 310 308 304 305 304 313 308 302 301 301 299 298 297 297 298 300 296 299 297 297 296 296
314 315 315 316 316 316 315 316 314 314 315 315 315 314 314 308 308 315 315 318 313 295 284 296 302 301 300 303 302 303 305 307 307 302 300 301 300 300 299 298 299 301 299 298 299 297 291
314 314 314 314 315 315 315 314 314 314 313 314 314 314 310 309 301 313 314 308 294 288 296 294 297 300 300 298 299 300 300 299 297 294 294 298 298 299 300 297 299 299 295 291 289 291 291
315 315 315 315 314 314 314 314 313 311 312 313 314 312 309 307 309 312 310 298 286 293 293 300 299 298 296 298 298 298 298 297 301 299 296 294 291 297 299 298 296 296 295 292 287 287 291
315 315 314 315 315 314 314 313 312 311 312 312 310 308 305 306 311 314 303 287 290 293 296 294 296 295 295 297 298 297 297 297 299 299 294 293 293 297 298 298 299 295 292 297 291 291 290
311 313 313 313 314 314 314 313 311 311 311 311 306 303 301 307 310 308 295 290 294 300 298 297 291 295 293 295 293 295 295 300 298 301 303 297 291 295 297 300 299 298 299 291 293 287 285
310 311 311 313 313 313 313 312 311 310 311 309 304 295 303 312 312 299 287 289 294 301 299 293 293 293 294 295 295 293 295 298 300 299 302 300 296 292 296 295 295 294 294 295 296 293 288
310 310 310 311 311 311 311 312 311 311 310 307 300 289 305 312 294 295 289 291 295 294 300 296 296 294 294 296 294 294 294 298 300 299 295 301 297 291 292 295 297 299 296 296 290 289 292
309 309 309 309 310 310 310 310 311 310 309 305 295 294 304 303 287 289 292 292 294 293 294 294 293 297 296 294 292 295 297 299 299 298 297 297 295 289 289 293 295 293 296 297 295 295 291
307 307 307 308 308 308 309 309 310 310 309 304 295 287 294 297 294 289 286 286 286 293 293 295 293 295 293 291 294 294 293 295 297 299 307 302 296 294 291 293 296 291 294 296 294 291 292
306 306 306 307 307 308 308 308 308 309 310 302 294 289 292 286 287 289 289 287 285 285 290 293 292 292 292 287 290 291 294 293 295 297 299 298 293 295 295 294 294 294 293 293 293 294 291
305 305 306 306 306 308 308 309 307 308 308 298 289 290 293 289 290 288 288 286 286 287 288 287 285 287 293 290 291 291 289 291 292 297 294 296 294 293 292 293 293 291 293 294 294 295 295
304 305 305 305 306 307 307 307 307 307 306 296 296 298 294 288 287 285 286 286 286 289 289 290 289 288 288 293 297 298 295 295 293 291 292 294 294 291 289 292 291 289 293 293 295 296 296
303 304 305 305 305 306 306 307 307 306 304 299 299 298 289 283 286 285 286 287 286 287 286 290 291 288 292 297 300 298 296 294 293 293 295 293 293 293 290 290 284 295 298 299 295 297 298
303 303 304 305 306 303 305 306 307 305 305 300 299 296 291 285 287 286 286 287 288 289 288 289 292 295 298 293 288 287 287 288 289 293 294 294 294 291 288 287 293 292 293 295 294 296 300
302 303 303 304 305 303 301 304 304 305 304 301 301 303 294 286 285 288 287 288 285 286 287 290 294 297 295 289 288 283 282 286 285 287 290 292 293 293 289 287 285 296 298 300 300 293 304
301 302 303 303 303 303 304 303 304 304 305 304 301 303 295 286 291 291 287 287 290 289 287 290 291 292 295 286 285 285 285 290 285 285 285 286 289 288 291 289 293 297 297 301 292 296 303
301 302 302 302 304 302 302 302 303 304 304 303 301 304 296 290 292 293 294 290 291 291 286 291 290 291 290 284 286 287 288 289 289 292 290 288 288 288 291 289 287 297 296 295 303 301 301
300 301 301 302 303 302 302 302 302 303 304 304 297 304 304 293 292 297 297 298 297 295 293 292 290 288 291 289 289 291 289 291 290 286 293 287 293 292 294 293 299 298 303 302 301 302 300
Wind_Speed
19 5 6 5 6 6 7 7 7 8 9 10 11 12 13 15 17 17 17 16 16 16 15 11 11 10 4 5 5 9 13 11 8 5 5 6 8 6 7 4 5 6 2 5 7 6 9
18 17 18 17 16 7 7 6 7 7 10 10 11 12 12 14 16 18 19 18 18 18 14 10 6 8 7 9 3 12 13 10 6 6 5 5 5 4 3 3 7 1 6 9 7 7 6
14 15 17 15 18 16 19 18 14 10 8 7 10 14 14 13 14 15 19 19 20 18 14 7 5 6 7 7 2 12 13 8 7 5 5 3 3 7 4 4 1 3 8 7 9 6 4
14 14 15 15 16 16 16 18 17 17 18 15 13 13 11 13 15 17 18 19 20 15 5 3 4 5 7 2 2 12 11 7 6 5 3 5 2 2 3 2 3 5 5 7 6 3 3
12 13 14 14 14 15 15 15 15 15 16 17 16 17 15 13 15 18 20 21 14 1 2 5 5 6 5 5 7 13 11 11 9 7 5 6 2 1 4 6 6 6 7 6 4 3 3
8 9 11 12 12 13 14 14 15 15 16 18 15 15 17 16 15 18 22 18 3 4 4 4 3 6 7 5 7 12 10 12 5 10 7 5 4 7 7 9 7 3 7 5 7 4 6
8 8 8 9 10 12 13 14 15 16 16 17 17 16 16 17 19 18 12 3 5 6 6 8 2 5 1 3 7 11 13 11 8 9 10 5 8 11 12 11 8 7 8 10 8 4 8
8 9 9 8 8 9 11 12 14 15 16 17 18 18 19 19 18 16 6 3 4 4 10 13 18 14 9 3 7 12 14 14 11 13 7 6 14 13 4 5 9 9 11 12 8 4 7
11 10 10 9 10 9 9 10 12 14 15 17 18 19 21 23 21 3 5 6 8 4 8 9 10 11 12 11 11 18 20 17 15 15 14 15 2 3 10 9 12 12 13 10 10 3 11
11 11 11 10 10 10 11 10 10 11 13 14 15 17 21 27 5 6 0 8 9 5 8 7 9 9 11 12 12 12 20 14 7 16 12 12 13 11 9 12 13 12 7 9 7 6 6
11 11 10 10 12 11 10 10 11 11 10 10 11 14 17 13 9 6 7 11 8 5 11 7 6 2 7 19 12 10 16 9 16 12 9 4 9 9 12 15 13 4 4 4 5 9 8
13 13 13 12 12 11 11 10 10 11 11 10 10 12 15 7 6 7 11 14 4 7 13 3 5 8 11 17 4 6 11 4 2 9 7 10 1 5 3 4 9 11 5 2 3 4 7
15 15 15 14 13 12 12 11 11 10 11 11 10 10 13 7 5 10 9 4 7 14 3 7 5 8 15 14 11 11 19 17 14 13 17 13 14 5 7 8 7 9 6 3 5 5 2
18 18 15 14 15 14 13 12 12 10 10 9 8 11 6 8 9 6 4 3 13 12 21 4 2 4 11 9 13 10 15 19 22 15 2 14 8 18 14 13 9 14 10 5 5 4 1
18 20 19 18 16 17 15 14 12 11 9 8 5 4 5 6 6 5 3 9 13 13 8 9 9 7 13 11 7 12 17 20 18 20 14 9 7 6 6 6 10 8 10 2 1 1 4
20 20 19 21 21 19 18 16 15 12 8 3 4 5 6 3 5 5 7 18 15 12 12 10 14 13 14 13 11 15 15 16 14 23 18 7 5 6 5 5 4 7 12 6 5 4 6
21 21 22 21 20 21 21 20 18 13 8 7 3 4 1 4 7 5 10 10 19 20 13 6 14 16 18 14 17 14 11 9 16 20 22 11 6 7 8 12 15 8 7 4 4 5 4
23 24 25 21 21 21 20 23 21 16 7 6 3 5 3 3 6 5 11 10 6 18 14 10 12 13 15 13 12 14 18 14 13 16 18 20 10 9 13 2 7 14 13 16 7 7 4
27 26 26 24 22 20 21 22 24 20 17 5 5 5 4 4 6 10 14 16 16 20 20 8 7 17 20 13 9 13 11 1 8 16 20 14 11 9 6 6 5 11 15 15 7 2 9
28 26 27 28 26 25 22 23 22 24 22 10 5 6 6 7 10 15 18 19 19 12 16 19 19 15 17 19 19 10 6 1 4 9 8 17 8 19 12 3 10 12 20 20 17 10 7
27 27 27 30 30 28 28 24 24 24 25 11 7 7 7 7 9 14 14 10 15 18 13 7 19 25 19 7 21 23 6 3 2 4 5 14 14 16 8 5 9 8 18 22 22 20 11
28 28 28 30 32 31 32 28 24 21 22 9 6 6 6 8 10 14 12 13 19 20 18 19 17 22 22 26 18 9 14 6 4 3 3 5 8 13 15 8 9 5 11 20 23 22 20
28 28 29 28 32 30 26 24 26 24 29 5 7 3 5 7 10 9 15 19 16 16 17 20 19 22 21 24 19 23 3 6 10 12 11 11 8 9 15 12 6 12 19 19 14 16 22
29 29 29 31 28 28 26 24 23 22 23 3 3 5 5 6 12 15 13 18 22 22 22 20 20 18 13 15 26 18 10 16 17 20 15 14 15 5 6 11 12 5 5 21 25 18 23
28 29 27 30 27 10 15 15 17 19 19 4 6 4 5 7 11 16 21 20 21 22 22 22 24 21 15 7 10 6 7 6 13 21 19 20 15 10 8 12 5 6 7 12 17 17 23
28 26 23 29 20 11 10 16 20 16 20 11 8 6 4 4 13 20 17 19 16 14 17 23 23 18 12 6 5 10 10 13 10 6 7 13 14 14 6 10 13 9 11 11 8 12 12
26 26 24 26 14 13 12 11 11 12 13 8 5 11 5 5 12 15 14 14 16 16 11 15 12 12 16 7 8 12 14 11 15 13 10 9 10 17 16 10 6 3 11 15 12 5 5
24 28 17 23 23 12 7 7 7 10 12 10 7 11 9 5 16 16 22 21 13 12 11 7 5 11 7 11 6 7 10 12 13 14 22 15 13 12 17 15 14 9 10 13 7 2 5
25 27 17 23 15 14 10 9 9 12 14 12 6 9 11 9 9 13 24 25 22 22 13 6 6 4 2 6 5 6 7 10 18 15 9 10 10 12 13 12 3 21 5 7 1 2 5
Wind_Direction
33 17 352 345 343 352 352 354 352 351 352 351 350 349 344 340 336 331 329 328 325 322 321 314 308 292 221 218 236 146 153 150 158 181 208 202 210 213 220 204 195 243 257 240 244 250 249
32 32 26 22 20 327 333 335 344 349 344 345 345 343 343 340 335 329 325 321 318 316 313 300 291 275 249 236 91 165 161 161 189 191 179 206 249 225 208 218 236 359 259 265 271 259 235
19 24 33 23 29 19 27 24 1 331 324 331 344 342 339 337 330 326 323 318 317 314 300 275 204 226 246 263 167 167 168 178 174 183 183 193 183 223 169 185 214 284 275 258 231 223 245
28 20 22 22 19 20 18 26 16 11 12 358 339 327 333 329 329 325 321 315 316 308 276 259 214 216 250 89 205 169 175 151 161 141 124 134 174 161 263 120 187 246 251 255 147 225 157
29 28 28 27 21 18 13 13 14 10 8 358 355 348 334 323 322 322 318 316 313 308 183 160 223 261 241 128 183 188 185 170 153 138 117 125 203 246 179 223 221 202 273 244 251 208 238
14 20 20 21 18 17 16 12 9 7 5 359 350 348 347 331 319 323 320 309 232 190 188 211 253 233 209 209 171 177 182 170 159 152 152 196 207 227 211 218 247 236 246 240 262 156 242
344 352 1 8 11 13 16 12 7 6 1 359 6 358 348 342 328 322 330 289 227 193 207 230 251 271 236 103 144 189 172 165 144 189 201 185 225 224 231 231 291 273 264 269 272 273 279
313 324 333 344 354 359 1 3 1 0 1 359 356 351 344 336 331 316 296 2 33 332 294 245 246 254 253 212 184 178 186 186 194 212 179 195 238 247 258 229 224 235 256 267 279 253 248
308 304 309 321 331 340 350 355 354 356 355 356 355 349 343 332 321 284 336 36 333 231 261 256 219 224 207 204 215 187 189 202 203 212 211 233 219 91 196 207 221 232 248 268 280 297 247
330 322 312 307 313 322 329 337 341 348 349 349 352 349 348 332 280 343 13 352 332 258 272 232 209 223 181 182 224 183 196 190 205 214 219 244 247 220 222 230 219 247 231 254 259 265 290
313 313 310 306 308 306 309 316 323 328 335 338 345 346 345 338 316 296 353 330 320 238 279 111 165 91 163 181 123 183 176 184 210 179 190 193 188 192 223 227 197 258 155 215 257 264 294
300 299 300 298 293 291 298 298 302 310 320 331 339 339 338 331 301 300 332 314 243 224 243 213 149 175 164 201 157 127 172 148 232 195 231 257 149 206 224 126 193 136 151 192 234 260 247
291 293 292 292 290 288 286 289 299 305 312 321 332 328 320 299 281 333 325 305 220 231 95 186 202 186 195 188 187 182 184 186 181 196 222 209 217 179 167 144 148 185 195 237 221 204 299
292 289 285 280 283 279 275 278 274 287 302 316 320 317 299 270 277 313 312 197 234 237 225 85 112 176 201 173 204 181 186 201 209 215 197 210 205 195 182 210 195 194 215 220 257 223 138
296 292 288 284 271 267 265 268 271 275 293 296 317 302 278 264 249 202 209 218 225 238 268 267 231 228 205 204 215 190 206 211 204 202 205 210 216 146 197 162 185 161 210 0 267 180 260
298 296 290 286 281 271 265 260 261 267 281 306 297 293 264 298 212 195 212 235 243 259 288 291 247 227 225 203 191 196 191 205 209 197 211 177 199 184 133 159 91 238 137 173 200 231 242
298 295 293 291 289 280 273 264 252 256 253 147 264 276 197 282 179 198 224 236 245 255 284 279 259 265 248 228 210 198 207 209 209 190 202 180 235 139 159 214 183 161 194 211 282 253 290
294 292 293 289 289 284 276 265 253 238 199 177 240 248 96 181 199 216 229 238 224 262 262 277 267 270 271 263 223 212 205 220 181 162 190 201 214 196 198 89 283 226 218 206 227 190 242
294 291 288 286 287 282 279 274 257 234 186 182 226 238 182 246 227 229 250 255 261 265 261 270 281 232 253 290 269 219 223 95 159 173 181 170 206 180 181 189 188 217 203 214 226 247 214
294 292 287 286 284 285 278 270 265 242 197 200 215 215 190 207 237 247 253 262 265 266 279 263 253 278 282 270 270 289 238 307 216 217 202 181 189 214 214 196 154 200 201 200 205 220 210
297 290 289 288 283 277 277 273 260 249 216 180 199 202 207 180 217 229 243 266 268 273 261 300 253 241 247 260 260 261 258 330 139 249 228 197 223 211 218 160 182 207 193 194 209 217 216
302 297 294 293 294 285 274 256 248 231 211 213 183 191 190 231 231 243 229 237 247 258 258 269 253 280 270 235 236 229 342 29 15 39 248 225 222 199 213 184 198 207 198 200 217 223 236
305 298 295 293 291 285 273 260 231 234 198 188 191 180 193 184 212 227 232 242 252 261 266 263 265 270 261 264 250 242 184 290 298 308 287 248 207 180 217 192 175 249 210 197 205 220 223
306 302 296 298 293 282 285 243 229 202 189 159 166 149 170 217 228 233 248 250 258 258 262 260 270 265 254 297 292 275 243 266 283 288 272 254 222 229 167 148 216 229 145 200 206 214 212
308 307 304 304 306 298 283 238 229 186 199 180 199 197 196 230 230 242 243 256 263 263 256 257 253 258 262 283 262 216 201 217 243 270 258 231 227 212 194 215 276 164 168 171 186 240 220
305 315 310 300 305 254 256 259 197 212 203 201 210 193 197 234 233 246 259 259 259 253 259 252 252 256 231 263 213 210 213 202 186 243 223 216 247 227 177 215 222 203 175 160 168 259 210
313 317 300 293 282 245 215 216 215 222 217 202 214 194 207 220 249 246 239 249 245 254 253 265 250 240 197 210 224 209 213 197 205 202 183 189 209 212 213 231 223 174 149 155 191 222 187
304 305 289 296 275 250 248 251 260 252 239 219 233 199 202 225 252 244 235 242 242 239 236 249 279 228 202 209 232 196 229 192 210 204 206 183 181 203 221 217 240 139 135 195 204 100 148
300 305 289 277 288 271 248 260 267 268 252 233 243 210 207 227 259 231 230 235 226 236 248 215 237 255 319 217 224 237 208 195 204 206 181 219 197 199 205 206 70 176 180 194 285 194 175